This is the latest recevied weather packets stored in our database for station/object XE2VP-WX. If no packets are shown the sender has not sent any weather packets the latest 1 day(s).
| Time | Temp. | Humidity | Pressure | Rain* | Wind** | Luminosity | Snow |
|---|---|---|---|---|---|---|---|
| 1778014092 | 38.33° C | 19% | 936.2 hPa | 0 mm | 0.89 m/s, 227° | 871 W/m² | - |
| 1778014032 | 38.33° C | 19% | 936.2 hPa | 0 mm | 0.89 m/s, 226° | 877 W/m² | - |
| 1778013973 | 38.33° C | 19% | 936.2 hPa | 0 mm | 0.89 m/s, 227° | 869 W/m² | - |
| 1778013912 | 38.33° C | 19% | 936.2 hPa | 0 mm | 0.89 m/s, 229° | 872 W/m² | - |
| 1778013852 | 38.33° C | 19% | 936.3 hPa | 0 mm | 0.89 m/s, 226° | 874 W/m² | - |
| 1778013792 | 38.33° C | 19% | 936.3 hPa | 0 mm | 0.89 m/s, 226° | 872 W/m² | - |
| 1778013732 | 38.33° C | 19% | 936.3 hPa | 0 mm | 0.89 m/s, 226° | 876 W/m² | - |
| 1778013672 | 38.33° C | 19% | 936.3 hPa | 0 mm | 0.89 m/s, 236° | 877 W/m² | - |
| 1778013612 | 37.78° C | 19% | 936.4 hPa | 0 mm | 0.89 m/s, 226° | 879 W/m² | - |
| 1778013552 | 37.78° C | 19% | 936.4 hPa | 0 mm | 1.34 m/s, 228° | 876 W/m² | - |
| 1778013492 | 37.78° C | 19% | 936.4 hPa | 0 mm | 1.34 m/s, 235° | 886 W/m² | - |
| 1778013432 | 37.78° C | 19% | 936.4 hPa | 0 mm | 1.34 m/s, 220° | 886 W/m² | - |
| 1778013373 | 37.78° C | 20% | 936.4 hPa | 0 mm | 1.34 m/s, 209° | 873 W/m² | - |
| 1778013312 | 38.33° C | 20% | 936.4 hPa | 0 mm | 1.34 m/s, 222° | 864 W/m² | - |
| 1778013252 | 38.33° C | 20% | 936.5 hPa | 0 mm | 0.89 m/s, 279° | 865 W/m² | - |
| 1778013192 | 38.33° C | 20% | 936.5 hPa | 0 mm | 0.89 m/s, 340° | 873 W/m² | - |
| 1778013132 | 38.33° C | 20% | 936.5 hPa | 0 mm | 0.89 m/s, 225° | 900 W/m² | - |
| 1778013072 | 37.78° C | 20% | 936.5 hPa | 0 mm | 0.89 m/s, 35° | 887 W/m² | - |
| 1778013012 | 37.78° C | 20% | 936.6 hPa | 0 mm | 0.89 m/s, 12° | 891 W/m² | - |
| 1778012953 | 37.78° C | 19% | 936.6 hPa | 0 mm | 0.89 m/s, 28° | 894 W/m² | - |
| 1778012892 | 37.78° C | 19% | 936.6 hPa | 0 mm | 1.34 m/s, 226° | 894 W/m² | - |
| 1778012832 | 37.78° C | 19% | 936.6 hPa | 0 mm | 1.34 m/s, 49° | 897 W/m² | - |
| 1778012772 | 37.78° C | 19% | 936.6 hPa | 0 mm | 1.34 m/s, 34° | 912 W/m² | - |
| 1778012712 | 37.78° C | 19% | 936.6 hPa | 0 mm | 1.34 m/s, 31° | 923 W/m² | - |
| 1778012652 | 37.22° C | 20% | 936.7 hPa | 0 mm | 1.34 m/s, 0° | 923 W/m² | - |
* Rain latest hour (hover to see other rain measurements)
** Current wind speed in m/s (hover to see current wind gust speed)